This is the latest recevied weather packets stored in our database for station/object KE5OYL. If no packets are shown the sender has not sent any weather packets the latest 10 day(s).
| Time | Temp. | Humidity | Pressure | Rain* | Wind** | Luminosity | Snow |
|---|---|---|---|---|---|---|---|
| 1776958901 | 21.67° C | 85% | 1012.7 hPa | 0 mm | - | 185 W/m² | - |
| 1776958600 | 21.67° C | 84% | 1012.9 hPa | 0 mm | - | 121 W/m² | - |
| 1776958299 | 21.67° C | 84% | 1012.9 hPa | 0 mm | - | 69 W/m² | - |
| 1776957989 | 21.67° C | 84% | 1012.8 hPa | 0 mm | - | 75 W/m² | - |
| 1776957685 | 21.67° C | 84% | 1013 hPa | 0 mm | - | 75 W/m² | - |
| 1776957380 | 21.67° C | 85% | 1012.8 hPa | 0 mm | - | 82 W/m² | - |
| 1776957080 | 21.67° C | 85% | 1012.8 hPa | 0 mm | - | 90 W/m² | - |
| 1776956775 | 21.11° C | 85% | 1012.8 hPa | 0 mm | - | 93 W/m² | - |
| 1776956474 | 21.11° C | 85% | 1012.8 hPa | 0 mm | - | 108 W/m² | - |
| 1776956169 | 21.11° C | 86% | 1013 hPa | 0 mm | - | 107 W/m² | - |
| 1776955864 | 21.11° C | 86% | 1012.9 hPa | 0 mm | - | 87 W/m² | - |
| 1776955561 | 21.11° C | 85% | 1012.6 hPa | 0 mm | - | 53 W/m² | - |
| 1776955256 | 21.11° C | 85% | 1012.8 hPa | 0 mm | - | 106 W/m² | - |
| 1776954953 | 21.11° C | 86% | 1012.6 hPa | 0 mm | - | 121 W/m² | - |
| 1776954650 | 21.11° C | 86% | 1012.7 hPa | 0 mm | - | 113 W/m² | - |
| 1776954349 | 21.11° C | 86% | 1012.6 hPa | 0 mm | - | 132 W/m² | - |
| 1776954044 | 21.11° C | 86% | 1012.7 hPa | 0 mm | - | 78 W/m² | - |
| 1776953744 | 21.11° C | 86% | 1012.5 hPa | 0 mm | - | 75 W/m² | - |
| 1776953439 | 21.11° C | 86% | 1012.7 hPa | 0 mm | - | 91 W/m² | - |
| 1776953133 | 21.11° C | 86% | 1012.6 hPa | 0 mm | - | 90 W/m² | - |
| 1776952828 | 20.56° C | 86% | 1012.4 hPa | 0 mm | - | 66 W/m² | - |
| 1776952526 | 20.56° C | 86% | 1012.4 hPa | 0 mm | - | 81 W/m² | - |
| 1776952221 | 20.56° C | 86% | 1012.4 hPa | 0 mm | - | 73 W/m² | - |
| 1776951918 | 20.56° C | 87% | 1012.3 hPa | 0 mm | - | 61 W/m² | - |
| 1776951616 | 20.56° C | 87% | 1012.3 hPa | 0 mm | - | 55 W/m² | - |
* Rain latest hour (hover to see other rain measurements)
** Current wind speed in m/s (hover to see current wind gust speed)